User: anonymous   Login
Location: Cosy Dell
(34.2789°N, 117.4537°W)
Time: 22:16:59
(UTC+00:00)
Language:

deb Chang Zheng 4 - Orbit

View from above orbital plane
View from above orbital plane
View from above satellite
View from above satellite

Ground track
Ground track

The orbit data is extracted from the following two-line orbital elements,

1 20847U 90081K   20270.45935730  .00002162  00000-0  26196-3 0  9994
2 20847  98.5576 248.1711 0014939 185.0691 175.0373 14.84739433583225
Epoch (UTC): 26 September 2020 11:01:28
Eccentricity: 0.0014939
inclination: 98.5576°
perigee height: 604 km
apogee height: 625 km
right ascension of ascending node: 248.1711°
argument of perigee: 185.0691°
revolutions per day: 14.84739433
mean anomaly at epoch: 175.0373°
orbit number at epoch: 58322

The dashed part of the orbit path shows where the satellite is in the earth's shadow,  

DLR